MSR50R LFBO-HECA

Flight info

Callsign MSR50R
Flight time 3h 40m
Altitude 37000
Route AMOLO DCT DEGOL DCT FJR DCT AMFAC DCT BATIV DCT PELOS DCT IPROM DCT SUBOK DCT ABNAT DCT EVLIB DCT ARLOS DCT SALUN N705 MMA P751 DASUM Y234 FYM W613 ALPID W8 CVO
Aircraft A359/H-SDE2E3GHIJ3J4J5LM1ORWXY/LB1D1

Departure

Time 2026-05-06 07:08
Airport Toulouse-Blagnac Airport (LFBO)

Arrival

Time 2026-05-06 10:49
Airport Cairo International Airport (HECA)
Time Latitude Longitude Altitude Speed Heading
2026-05-06 06:27 43.61751 1.36464 500 ft 0 kts 272°
2026-05-06 06:50 43.61750 1.36485 500 ft 4 kts 269°
2026-05-06 06:50 43.61752 1.36522 500 ft 4 kts 261°
2026-05-06 06:51 43.61758 1.36557 500 ft 4 kts 245°
2026-05-06 06:51 43.61773 1.36586 500 ft 4 kts 205°
2026-05-06 06:51 43.61783 1.36590 500 ft 0 kts 180°
2026-05-06 07:02 43.61781 1.36590 500 ft 2 kts 180°
2026-05-06 07:02 43.61749 1.36626 500 ft 8 kts 103°
2026-05-06 07:02 43.61794 1.36716 500 ft 19 kts 48°
2026-05-06 07:02 43.61857 1.36910 500 ft 23 kts 122°
2026-05-06 07:03 43.61817 1.37037 500 ft 0 kts 49°
2026-05-06 07:03 43.61818 1.37041 500 ft 0 kts 54°
2026-05-06 07:04 43.61864 1.37124 500 ft 19 kts 52°
2026-05-06 07:04 43.61964 1.37135 500 ft 14 kts 334°
2026-05-06 07:05 43.61983 1.37116 500 ft 0 kts 319°
2026-05-06 07:07 43.61992 1.37106 500 ft 10 kts 320°
2026-05-06 07:08 43.62206 1.36883 500 ft 74 kts 323°
2026-05-06 07:08 43.62794 1.36276 500 ft 135 kts 323°
2026-05-06 07:08 43.63683 1.35356 641 ft 176 kts 322°
2026-05-06 07:08 43.64697 1.34357 1367 ft 173 kts 323°
2026-05-06 07:09 43.65719 1.33436 2045 ft 181 kts 324°
2026-05-06 07:09 43.66839 1.32491 2419 ft 203 kts 326°
2026-05-06 07:09 43.68243 1.31869 2956 ft 221 kts 352°
2026-05-06 07:09 43.69809 1.32449 3343 ft 253 kts 31°
2026-05-06 07:10 43.70993 1.34356 3913 ft 272 kts 58°
2026-05-06 07:10 43.71952 1.36641 4691 ft 277 kts 57°
2026-05-06 07:10 43.72999 1.38906 5496 ft 281 kts 54°
2026-05-06 07:10 43.74132 1.41127 6351 ft 284 kts 51°
2026-05-06 07:11 43.75321 1.43325 7195 ft 287 kts 50°
2026-05-06 07:11 43.76546 1.45520 8133 ft 289 kts 50°
2026-05-06 07:11 43.77791 1.47717 9025 ft 291 kts 50°
2026-05-06 07:11 43.79051 1.49920 9941 ft 294 kts 49°
2026-05-06 07:12 43.80346 1.52174 10563 ft 308 kts 49°
2026-05-06 07:12 43.81666 1.54628 10915 ft 331 kts 57°
2026-05-06 07:12 43.82593 1.57631 11303 ft 352 kts 71°
2026-05-06 07:12 43.83321 1.60959 11712 ft 369 kts 72°
2026-05-06 07:13 43.84048 1.64415 12377 ft 377 kts 72°
2026-05-06 07:13 43.84792 1.67921 13113 ft 383 kts 72°
2026-05-06 07:13 43.85556 1.71487 13857 ft 387 kts 72°
2026-05-06 07:13 43.86328 1.75084 14537 ft 392 kts 72°
2026-05-06 07:14 43.87110 1.78714 15195 ft 396 kts 72°
2026-05-06 07:14 43.87900 1.82385 15880 ft 399 kts 72°
2026-05-06 07:14 43.88698 1.86094 16579 ft 403 kts 72°
2026-05-06 07:14 43.89504 1.89848 17311 ft 408 kts 72°
2026-05-06 07:15 43.90308 1.93595 18014 ft 413 kts 72°
2026-05-06 07:15 43.91129 1.97433 18663 ft 418 kts 72°
2026-05-06 07:15 43.91743 2.01380 19322 ft 423 kts 84°
2026-05-06 07:15 43.91603 2.05465 19972 ft 427 kts 100°
2026-05-06 07:16 43.90985 2.09504 20585 ft 431 kts 103°
2026-05-06 07:16 43.90288 2.13567 21240 ft 435 kts 104°
2026-05-06 07:16 43.89583 2.17676 21890 ft 438 kts 104°
2026-05-06 07:16 43.88881 2.21804 22522 ft 442 kts 103°
2026-05-06 07:17 43.88176 2.25974 23148 ft 446 kts 103°
2026-05-06 07:17 43.87466 2.30189 23712 ft 451 kts 104°
2026-05-06 07:17 43.86749 2.34438 24139 ft 457 kts 105°
2026-05-06 07:17 43.86020 2.38749 24595 ft 461 kts 105°
2026-05-06 07:18 43.85284 2.43099 25073 ft 466 kts 105°
2026-05-06 07:18 43.84539 2.47489 25543 ft 470 kts 105°
2026-05-06 07:18 43.83786 2.51917 25998 ft 475 kts 105°
2026-05-06 07:18 43.83025 2.56383 26484 ft 479 kts 105°
2026-05-06 07:19 43.82256 2.60891 26928 ft 483 kts 106°
2026-05-06 07:19 43.81470 2.65445 27380 ft 488 kts 106°
2026-05-06 07:19 43.80671 2.70032 27780 ft 493 kts 107°
2026-05-06 07:19 43.79860 2.74667 28164 ft 498 kts 107°
2026-05-06 07:20 43.79047 2.79315 28382 ft 507 kts 108°
2026-05-06 07:20 43.78211 2.84085 28708 ft 513 kts 108°
2026-05-06 07:20 43.77373 2.88900 29185 ft 516 kts 108°
2026-05-06 07:20 43.76527 2.93742 29605 ft 520 kts 108°
2026-05-06 07:21 43.75671 2.98612 30009 ft 523 kts 108°
2026-05-06 07:21 43.74805 3.03515 30338 ft 526 kts 108°
2026-05-06 07:21 43.73933 3.08445 30692 ft 528 kts 109°
2026-05-06 07:21 43.73058 3.13382 31035 ft 530 kts 109°
2026-05-06 07:22 43.72178 3.18333 31419 ft 531 kts 109°
2026-05-06 07:22 43.71296 3.23293 31793 ft 532 kts 109°
2026-05-06 07:22 43.70408 3.28267 32112 ft 534 kts 109°
2026-05-06 07:22 43.69515 3.33254 32496 ft 534 kts 109°
2026-05-06 07:23 43.68625 3.38217 32998 ft 531 kts 109°
2026-05-06 07:23 43.67739 3.43144 33485 ft 529 kts 109°
2026-05-06 07:23 43.66852 3.48064 33960 ft 526 kts 109°
2026-05-06 07:23 43.65966 3.52959 34312 ft 525 kts 109°
2026-05-06 07:24 43.65075 3.57861 34602 ft 525 kts 109°
2026-05-06 07:24 43.64184 3.62750 34911 ft 525 kts 109°
2026-05-06 07:24 43.63292 3.67635 35202 ft 525 kts 109°
2026-05-06 07:24 43.62400 3.72507 35487 ft 524 kts 109°
2026-05-06 07:25 43.61503 3.77392 35748 ft 524 kts 109°
2026-05-06 07:25 43.60607 3.82267 36004 ft 524 kts 109°
2026-05-06 07:25 43.59708 3.87142 36277 ft 524 kts 109°
2026-05-06 07:25 43.58733 3.91960 36557 ft 520 kts 114°
2026-05-06 07:26 43.57348 3.96541 36828 ft 514 kts 122°
2026-05-06 07:26 43.55500 4.00720 37032 ft 507 kts 132°
2026-05-06 07:26 43.53316 4.04498 37261 ft 504 kts 135°
2026-05-06 07:26 43.51059 4.08113 37516 ft 502 kts 137°
2026-05-06 07:27 43.48757 4.11671 37736 ft 502 kts 137°
2026-05-06 07:27 43.46420 4.15232 37984 ft 501 kts 137°
2026-05-06 07:27 43.44080 4.18791 38204 ft 501 kts 137°
2026-05-06 07:27 43.41749 4.22347 38441 ft 500 kts 137°
2026-05-06 07:28 43.39426 4.25904 38689 ft 499 kts 137°
2026-05-06 07:28 43.37112 4.29454 38828 ft 499 kts 137°
2026-05-06 07:28 43.32478 4.36571 38918 ft 501 kts 137°
2026-05-06 07:29 43.27829 4.43704 38921 ft 501 kts 137°
2026-05-06 07:29 43.23177 4.50822 38921 ft 501 kts 137°
2026-05-06 07:30 43.18516 4.57934 38903 ft 501 kts 137°
2026-05-06 07:30 43.13854 4.65029 38922 ft 501 kts 137°
2026-05-06 07:31 43.09188 4.72113 38924 ft 501 kts 137°
2026-05-06 07:31 43.04520 4.79181 38917 ft 501 kts 137°
2026-05-06 07:32 42.99880 4.86190 38924 ft 501 kts 137°
2026-05-06 07:32 42.95199 4.93245 38924 ft 501 kts 137°
2026-05-06 07:33 42.90523 5.00276 38904 ft 499 kts 138°
2026-05-06 07:33 42.86049 5.07531 38918 ft 502 kts 133°
2026-05-06 07:34 42.81864 5.15161 38923 ft 503 kts 132°
2026-05-06 07:34 42.77719 5.22839 38917 ft 503 kts 132°
2026-05-06 07:35 42.73576 5.30497 38919 ft 503 kts 132°
2026-05-06 07:35 42.69419 5.38140 38912 ft 503 kts 132°
2026-05-06 07:36 42.65256 5.45764 38918 ft 502 kts 133°
2026-05-06 07:36 42.61086 5.53381 38916 ft 502 kts 133°
2026-05-06 07:37 42.56937 5.60940 38917 ft 502 kts 133°
2026-05-06 07:37 42.52757 5.68539 38918 ft 502 kts 133°
2026-05-06 07:38 42.48576 5.76120 38911 ft 501 kts 133°
2026-05-06 07:38 42.44404 5.83665 38922 ft 501 kts 133°
2026-05-06 07:39 42.40226 5.91201 38922 ft 500 kts 133°
2026-05-06 07:39 42.36042 5.98729 38922 ft 500 kts 133°
2026-05-06 07:40 42.31852 6.06250 38922 ft 500 kts 133°
2026-05-06 07:40 42.27667 6.13743 38914 ft 499 kts 133°
2026-05-06 07:41 42.23488 6.21208 38898 ft 499 kts 133°
2026-05-06 07:41 42.19300 6.28668 38922 ft 499 kts 134°
2026-05-06 07:42 42.15108 6.36117 38925 ft 498 kts 134°
2026-05-06 07:42 42.10921 6.43562 38924 ft 499 kts 133°
2026-05-06 07:43 42.06848 6.51147 38928 ft 500 kts 131°
2026-05-06 07:43 42.02848 6.58709 38933 ft 499 kts 132°
2026-05-06 07:44 41.98802 6.66288 38931 ft 499 kts 132°
2026-05-06 07:44 41.94735 6.73844 38934 ft 499 kts 132°
2026-05-06 07:45 41.90651 6.81400 38940 ft 499 kts 132°
2026-05-06 07:45 41.86572 6.88930 38938 ft 499 kts 132°
2026-05-06 07:46 41.82479 6.96467 38936 ft 499 kts 132°
2026-05-06 07:46 41.78390 7.03983 38938 ft 499 kts 132°
2026-05-06 07:47 41.74290 7.11498 38940 ft 499 kts 132°
2026-05-06 07:47 41.70886 7.17725 38941 ft 499 kts 132°
2026-05-06 07:48 41.66778 7.25222 38941 ft 499 kts 132°
2026-05-06 07:48 41.62670 7.32699 38944 ft 499 kts 132°
2026-05-06 07:49 41.58555 7.40172 38944 ft 499 kts 132°
2026-05-06 07:49 41.54438 7.47629 38944 ft 499 kts 132°
2026-05-06 07:50 41.50318 7.55074 38949 ft 498 kts 132°
2026-05-06 07:50 41.46212 7.62477 38944 ft 495 kts 132°
2026-05-06 07:51 41.42148 7.69789 38944 ft 493 kts 132°
2026-05-06 07:51 41.38059 7.77122 38948 ft 493 kts 132°
2026-05-06 07:52 41.33973 7.84433 38950 ft 493 kts 132°
2026-05-06 07:52 41.29877 7.91746 38950 ft 492 kts 132°
2026-05-06 07:53 41.25779 7.99043 38934 ft 493 kts 132°
2026-05-06 07:53 41.21671 8.06341 38952 ft 493 kts 132°
2026-05-06 07:54 41.17477 8.13510 38952 ft 488 kts 138°
2026-05-06 07:54 41.12378 8.19243 38950 ft 479 kts 148°
2026-05-06 07:55 41.07521 8.25418 38952 ft 491 kts 133°
2026-05-06 07:55 41.03777 8.33071 38941 ft 496 kts 127°
2026-05-06 07:56 41.00164 8.40894 38967 ft 498 kts 126°
2026-05-06 07:56 40.96574 8.48735 38967 ft 498 kts 126°
2026-05-06 07:57 40.92954 8.56541 38970 ft 498 kts 126°
2026-05-06 07:57 40.89313 8.64326 38969 ft 498 kts 126°
2026-05-06 07:58 40.85662 8.72100 38940 ft 498 kts 127°
2026-05-06 07:58 40.82014 8.79851 38965 ft 497 kts 127°
2026-05-06 07:59 40.78369 8.87578 38955 ft 496 kts 126°
2026-05-06 07:59 40.74713 8.95309 38970 ft 496 kts 127°
2026-05-06 08:00 40.71049 9.03037 38974 ft 497 kts 127°
2026-05-06 08:00 40.67406 9.10705 38966 ft 497 kts 127°
2026-05-06 08:01 40.63728 9.18422 38970 ft 497 kts 127°
2026-05-06 08:01 40.60049 9.26126 38974 ft 497 kts 127°
2026-05-06 08:02 40.56364 9.33824 38975 ft 497 kts 127°
2026-05-06 08:02 40.52678 9.41503 38971 ft 497 kts 127°
2026-05-06 08:03 40.48986 9.49176 38966 ft 497 kts 127°
2026-05-06 08:03 40.45281 9.56852 38967 ft 497 kts 127°
2026-05-06 08:04 40.41601 9.64464 38966 ft 497 kts 127°
2026-05-06 08:04 40.37873 9.72159 38963 ft 497 kts 127°
2026-05-06 08:05 40.34159 9.79802 38963 ft 497 kts 127°
2026-05-06 08:05 40.30469 9.87378 38961 ft 495 kts 127°
2026-05-06 08:06 40.26769 9.94956 38966 ft 493 kts 127°
2026-05-06 08:06 40.23070 10.02511 38966 ft 493 kts 127°
2026-05-06 08:07 40.19364 10.10063 38967 ft 493 kts 127°
2026-05-06 08:07 40.15654 10.17603 38968 ft 493 kts 128°
2026-05-06 08:08 40.11945 10.25128 38966 ft 491 kts 127°
2026-05-06 08:08 40.08257 10.32592 38977 ft 488 kts 128°
2026-05-06 08:09 40.04570 10.40032 38975 ft 488 kts 128°
2026-05-06 08:09 40.00878 10.47465 38980 ft 488 kts 128°
2026-05-06 08:10 39.97180 10.54894 38976 ft 489 kts 128°
2026-05-06 08:10 39.93472 10.62325 38982 ft 489 kts 128°
2026-05-06 08:11 39.89782 10.69703 38979 ft 489 kts 128°
2026-05-06 08:11 39.86071 10.77106 38985 ft 488 kts 128°
2026-05-06 08:12 39.82357 10.84497 38985 ft 488 kts 128°
2026-05-06 08:12 39.78629 10.91898 38988 ft 489 kts 128°
2026-05-06 08:13 39.74900 10.99285 38991 ft 489 kts 128°
2026-05-06 08:13 39.71168 11.06660 38987 ft 489 kts 128°
2026-05-06 08:14 39.67416 11.14055 38990 ft 490 kts 128°
2026-05-06 08:14 39.63660 11.21444 38990 ft 490 kts 128°
2026-05-06 08:15 39.59899 11.28825 38991 ft 490 kts 128°
2026-05-06 08:15 39.56142 11.36181 38992 ft 490 kts 128°
2026-05-06 08:16 39.52364 11.43560 38993 ft 490 kts 128°
2026-05-06 08:16 39.48588 11.50918 38993 ft 490 kts 128°
2026-05-06 08:17 39.44807 11.58270 38984 ft 490 kts 128°
2026-05-06 08:17 39.41014 11.65627 38996 ft 492 kts 128°
2026-05-06 08:18 39.37211 11.72985 38994 ft 491 kts 128°
2026-05-06 08:18 39.33436 11.80276 38996 ft 491 kts 128°
2026-05-06 08:19 39.29636 11.87597 38996 ft 491 kts 128°
2026-05-06 08:19 39.25828 11.94915 38996 ft 491 kts 128°
2026-05-06 08:20 39.22020 12.02218 38996 ft 491 kts 128°
2026-05-06 08:20 39.18203 12.09521 39003 ft 491 kts 128°
2026-05-06 08:21 39.14376 12.16825 39001 ft 493 kts 128°
2026-05-06 08:21 39.10527 12.24155 39001 ft 494 kts 128°
2026-05-06 08:22 39.06678 12.31470 39001 ft 494 kts 128°
2026-05-06 08:22 39.02822 12.38781 39007 ft 494 kts 128°
2026-05-06 08:23 38.98962 12.46082 38995 ft 494 kts 128°
2026-05-06 08:23 38.95091 12.53388 39010 ft 495 kts 128°
2026-05-06 08:24 38.91219 12.60680 39000 ft 495 kts 128°
2026-05-06 08:24 38.87333 12.67980 39009 ft 495 kts 128°
2026-05-06 08:25 38.83441 12.75275 39011 ft 496 kts 128°
2026-05-06 08:25 38.79535 12.82581 39009 ft 496 kts 128°
2026-05-06 08:26 38.75629 12.89870 39012 ft 496 kts 128°
2026-05-06 08:26 38.71742 12.97107 39016 ft 496 kts 128°
2026-05-06 08:27 38.67830 13.04375 39014 ft 496 kts 128°
2026-05-06 08:27 38.63907 13.11647 39020 ft 496 kts 128°
2026-05-06 08:28 38.59984 13.18903 39007 ft 495 kts 128°
2026-05-06 08:28 38.56059 13.26145 39023 ft 496 kts 128°
2026-05-06 08:29 38.52129 13.33380 39023 ft 496 kts 128°
2026-05-06 08:29 38.48194 13.40608 39029 ft 496 kts 128°
2026-05-06 08:30 38.44253 13.47832 39028 ft 496 kts 128°
2026-05-06 08:30 38.40315 13.55035 39031 ft 495 kts 128°
2026-05-06 08:31 38.36369 13.62236 39031 ft 495 kts 128°
2026-05-06 08:31 38.32419 13.69430 39031 ft 495 kts 128°
2026-05-06 08:32 38.28491 13.76566 39034 ft 496 kts 128°
2026-05-06 08:32 38.24522 13.83761 39037 ft 497 kts 128°
2026-05-06 08:33 38.20544 13.90957 39036 ft 497 kts 128°
2026-05-06 08:33 38.16558 13.98152 39042 ft 498 kts 128°
2026-05-06 08:34 38.10574 14.08923 39045 ft 498 kts 128°
2026-05-06 08:35 38.06580 14.16094 39046 ft 498 kts 128°
2026-05-06 08:35 38.02580 14.23259 39050 ft 498 kts 129°
2026-05-06 08:36 37.99243 14.29222 39048 ft 499 kts 129°
2026-05-06 08:36 37.94536 14.37617 39051 ft 500 kts 129°
2026-05-06 08:37 37.91185 14.43582 39055 ft 500 kts 129°
2026-05-06 08:37 37.87144 14.50762 39051 ft 500 kts 129°
2026-05-06 08:38 37.83105 14.57922 39048 ft 500 kts 129°
2026-05-06 08:38 37.79057 14.65082 39051 ft 500 kts 129°
2026-05-06 08:39 37.75012 14.72221 39053 ft 500 kts 129°
2026-05-06 08:39 37.70953 14.79367 39042 ft 500 kts 129°
2026-05-06 08:40 37.66877 14.86527 39050 ft 503 kts 129°
2026-05-06 08:40 37.62786 14.93700 39043 ft 504 kts 129°
2026-05-06 08:41 37.58700 15.00851 39047 ft 502 kts 129°
2026-05-06 08:41 37.54609 15.07995 39047 ft 502 kts 129°
2026-05-06 08:42 37.50547 15.15072 39049 ft 502 kts 129°
2026-05-06 08:42 37.46451 15.22192 39052 ft 502 kts 129°
2026-05-06 08:43 37.42354 15.29298 39045 ft 502 kts 129°
2026-05-06 08:43 37.38250 15.36403 39059 ft 502 kts 129°
2026-05-06 08:44 37.34145 15.43493 39067 ft 502 kts 129°
2026-05-06 08:44 37.30033 15.50582 39072 ft 502 kts 129°
2026-05-06 08:45 37.25917 15.57660 39073 ft 502 kts 129°
2026-05-06 08:45 37.21797 15.64731 39066 ft 502 kts 129°
2026-05-06 08:46 37.17672 15.71798 39068 ft 502 kts 129°
2026-05-06 08:46 37.13546 15.78850 39080 ft 502 kts 129°
2026-05-06 08:47 37.09412 15.85900 39082 ft 502 kts 129°
2026-05-06 08:47 37.05273 15.92941 39088 ft 509 kts 129°
2026-05-06 08:48 37.01047 16.00114 39081 ft 514 kts 129°
2026-05-06 08:48 36.96802 16.07311 39092 ft 514 kts 129°
2026-05-06 08:49 36.92552 16.14500 39092 ft 514 kts 129°
2026-05-06 08:49 36.88293 16.21687 39095 ft 514 kts 129°
2026-05-06 08:50 36.84032 16.28864 39094 ft 514 kts 129°
2026-05-06 08:50 36.79775 16.36016 39086 ft 514 kts 129°
2026-05-06 08:51 36.75507 16.43173 39096 ft 514 kts 129°
2026-05-06 08:51 36.71234 16.50324 39097 ft 514 kts 129°
2026-05-06 08:52 36.66953 16.57471 39097 ft 514 kts 129°
2026-05-06 08:52 36.62700 16.64559 39099 ft 514 kts 129°
2026-05-06 08:53 36.58416 16.71682 39101 ft 514 kts 129°
2026-05-06 08:53 36.54127 16.78798 39102 ft 514 kts 129°
2026-05-06 08:54 36.50148 16.86178 39088 ft 517 kts 118°
2026-05-06 08:54 36.47485 16.94512 39105 ft 520 kts 111°
2026-05-06 08:55 36.45148 17.03034 39110 ft 521 kts 110°
2026-05-06 08:55 36.42849 17.11561 39109 ft 520 kts 110°
2026-05-06 08:56 36.40527 17.20051 39113 ft 519 kts 110°
2026-05-06 08:56 36.38182 17.28534 39110 ft 519 kts 110°
2026-05-06 08:57 36.35843 17.36949 39112 ft 519 kts 110°
2026-05-06 08:57 36.33481 17.45419 39111 ft 519 kts 110°
2026-05-06 08:58 36.31118 17.53870 39114 ft 519 kts 110°
2026-05-06 08:58 36.28744 17.62337 39118 ft 519 kts 110°
2026-05-06 08:59 36.26369 17.70783 39117 ft 519 kts 110°
2026-05-06 08:59 36.23987 17.79224 39116 ft 519 kts 110°
2026-05-06 09:00 36.21599 17.87662 39119 ft 519 kts 110°
2026-05-06 09:00 36.19208 17.96084 39124 ft 519 kts 111°
2026-05-06 09:01 36.16808 18.04512 39123 ft 519 kts 111°
2026-05-06 09:01 36.14408 18.12913 39128 ft 519 kts 111°
2026-05-06 09:02 36.12012 18.21277 39124 ft 519 kts 111°
2026-05-06 09:02 36.09599 18.29673 39124 ft 519 kts 111°
2026-05-06 09:03 36.07178 18.38073 39132 ft 519 kts 111°
2026-05-06 09:03 36.04749 18.46472 39132 ft 519 kts 111°
2026-05-06 09:04 36.02318 18.54855 39123 ft 519 kts 111°
2026-05-06 09:04 35.99877 18.63245 39131 ft 519 kts 111°
2026-05-06 09:05 35.97432 18.71627 39129 ft 520 kts 111°
2026-05-06 09:05 35.94974 18.80023 39130 ft 520 kts 111°
2026-05-06 09:06 35.92508 18.88428 39130 ft 521 kts 111°
2026-05-06 09:06 35.90032 18.96838 39131 ft 521 kts 111°
2026-05-06 09:07 35.87553 19.05234 39132 ft 521 kts 111°
2026-05-06 09:07 35.85065 19.13627 39137 ft 521 kts 111°
2026-05-06 09:08 35.82586 19.21976 39142 ft 521 kts 111°
2026-05-06 09:08 35.80090 19.30367 39137 ft 521 kts 111°
2026-05-06 09:09 35.77587 19.38751 39135 ft 521 kts 111°
2026-05-06 09:09 35.75079 19.47124 39137 ft 521 kts 111°
2026-05-06 09:10 35.72568 19.55484 39144 ft 522 kts 111°
2026-05-06 09:10 35.70044 19.63861 39140 ft 522 kts 111°
2026-05-06 09:11 35.67515 19.72232 39145 ft 522 kts 111°
2026-05-06 09:11 35.64984 19.80585 39141 ft 522 kts 111°
2026-05-06 09:12 35.62447 19.88930 39139 ft 522 kts 111°
2026-05-06 09:12 35.59900 19.97289 39141 ft 522 kts 111°
2026-05-06 09:13 35.57345 20.05646 39142 ft 522 kts 112°
2026-05-06 09:13 35.54787 20.13991 39146 ft 522 kts 112°
2026-05-06 09:14 35.52220 20.22339 39148 ft 523 kts 112°
2026-05-06 09:14 35.49647 20.30685 39143 ft 523 kts 112°
2026-05-06 09:15 35.47071 20.39014 39142 ft 523 kts 112°
2026-05-06 09:15 35.44485 20.47351 39142 ft 523 kts 112°
2026-05-06 09:16 35.41890 20.55694 39135 ft 524 kts 112°
2026-05-06 09:16 35.39291 20.64030 39154 ft 524 kts 112°
2026-05-06 09:17 35.36706 20.72293 39155 ft 524 kts 112°
2026-05-06 09:17 35.34094 20.80623 39150 ft 524 kts 112°
2026-05-06 09:18 35.31474 20.88950 39145 ft 524 kts 112°
2026-05-06 09:18 35.28849 20.97272 39146 ft 524 kts 112°
2026-05-06 09:19 35.26213 21.05604 39148 ft 524 kts 112°
2026-05-06 09:19 35.23576 21.13917 39148 ft 524 kts 112°
2026-05-06 09:20 35.20929 21.22239 39148 ft 525 kts 112°
2026-05-06 09:20 35.18276 21.30555 39148 ft 525 kts 112°
2026-05-06 09:21 35.15618 21.38865 39150 ft 525 kts 112°
2026-05-06 09:21 35.12951 21.47177 39146 ft 525 kts 112°
2026-05-06 09:22 35.10285 21.55466 39146 ft 525 kts 112°
2026-05-06 09:22 35.07605 21.63773 39146 ft 525 kts 112°
2026-05-06 09:23 35.04922 21.72068 39147 ft 525 kts 112°
2026-05-06 09:23 35.02235 21.80352 39129 ft 525 kts 112°
2026-05-06 09:24 34.99536 21.88629 39148 ft 525 kts 112°
2026-05-06 09:24 34.97269 21.95556 39148 ft 525 kts 112°
2026-05-06 09:25 34.94120 22.05154 39150 ft 525 kts 112°
2026-05-06 09:25 34.91863 22.12019 39146 ft 525 kts 112°
2026-05-06 09:26 34.89137 22.20287 39144 ft 526 kts 112°
2026-05-06 09:26 34.86405 22.28554 39149 ft 526 kts 112°
2026-05-06 09:27 34.83665 22.36822 39146 ft 526 kts 113°
2026-05-06 09:27 34.80922 22.45078 39146 ft 526 kts 113°
2026-05-06 09:28 34.78170 22.53338 39145 ft 527 kts 113°
2026-05-06 09:28 34.75408 22.61605 39146 ft 527 kts 113°
2026-05-06 09:29 34.72645 22.69853 39146 ft 527 kts 113°
2026-05-06 09:29 34.69874 22.78103 39146 ft 527 kts 113°
2026-05-06 09:30 34.67096 22.86351 39144 ft 527 kts 113°
2026-05-06 09:30 34.64312 22.94595 39146 ft 528 kts 113°
2026-05-06 09:31 34.61495 23.02820 39146 ft 528 kts 115°
2026-05-06 09:31 34.58183 23.10759 39151 ft 527 kts 119°
2026-05-06 09:32 34.54698 23.18588 39149 ft 528 kts 119°
2026-05-06 09:32 34.51267 23.26462 39146 ft 528 kts 118°
2026-05-06 09:33 34.47887 23.34365 39146 ft 528 kts 118°
2026-05-06 09:33 34.44541 23.42215 39146 ft 528 kts 118°
2026-05-06 09:34 34.41164 23.50119 39144 ft 529 kts 118°
2026-05-06 09:34 34.37770 23.58035 39145 ft 530 kts 118°
2026-05-06 09:35 34.34365 23.65956 39147 ft 530 kts 118°
2026-05-06 09:35 34.30958 23.73863 39148 ft 530 kts 118°
2026-05-06 09:36 34.27538 23.81781 39146 ft 531 kts 118°
2026-05-06 09:36 34.24110 23.89699 39146 ft 532 kts 118°
2026-05-06 09:37 34.20678 23.97610 39149 ft 532 kts 119°
2026-05-06 09:37 34.17238 24.05521 39149 ft 532 kts 119°
2026-05-06 09:38 34.13791 24.13429 39146 ft 533 kts 119°
2026-05-06 09:38 34.10326 24.21360 39146 ft 534 kts 119°
2026-05-06 09:39 34.06857 24.29282 39148 ft 534 kts 119°
2026-05-06 09:39 34.03384 24.37197 39148 ft 534 kts 119°
2026-05-06 09:40 33.99533 24.44822 39151 ft 532 kts 131°
2026-05-06 09:40 33.91620 24.54101 39147 ft 530 kts 141°
2026-05-06 09:41 33.86090 24.59976 39149 ft 531 kts 141°
2026-05-06 09:41 33.80553 24.65852 39146 ft 531 kts 141°
2026-05-06 09:42 33.75031 24.71746 39151 ft 531 kts 141°
2026-05-06 09:42 33.69509 24.77649 39148 ft 531 kts 141°
2026-05-06 09:43 33.63988 24.83543 39146 ft 531 kts 141°
2026-05-06 09:43 33.58471 24.89422 39150 ft 531 kts 141°
2026-05-06 09:44 33.52943 24.95299 39147 ft 531 kts 141°
2026-05-06 09:44 33.47416 25.01165 39151 ft 531 kts 141°
2026-05-06 09:45 33.41912 25.06996 39149 ft 532 kts 141°
2026-05-06 09:45 33.36362 25.12866 39151 ft 533 kts 141°
2026-05-06 09:46 33.30805 25.18733 39149 ft 533 kts 141°
2026-05-06 09:46 33.25244 25.24594 39152 ft 533 kts 141°
2026-05-06 09:47 33.19681 25.30446 39154 ft 533 kts 141°
2026-05-06 09:47 33.14117 25.36289 39154 ft 533 kts 141°
2026-05-06 09:48 33.08533 25.42143 39154 ft 534 kts 142°
2026-05-06 09:48 33.02951 25.47985 39154 ft 534 kts 142°
2026-05-06 09:49 32.97366 25.53819 39150 ft 534 kts 142°
2026-05-06 09:49 32.91776 25.59648 39151 ft 534 kts 142°
2026-05-06 09:50 32.86189 25.65463 39154 ft 534 kts 142°
2026-05-06 09:50 32.80585 25.71286 39157 ft 535 kts 142°
2026-05-06 09:51 32.75012 25.77068 39157 ft 535 kts 142°
2026-05-06 09:51 32.69405 25.82875 39147 ft 535 kts 142°
2026-05-06 09:52 32.63784 25.88686 39157 ft 536 kts 142°
2026-05-06 09:52 32.58164 25.94486 39157 ft 536 kts 142°
2026-05-06 09:53 32.52534 26.00286 39157 ft 536 kts 142°
2026-05-06 09:53 32.46901 26.06079 39157 ft 537 kts 142°
2026-05-06 09:54 32.41259 26.11872 39157 ft 537 kts 142°
2026-05-06 09:54 32.35613 26.17659 39155 ft 536 kts 142°
2026-05-06 09:55 32.29972 26.23431 39156 ft 536 kts 142°
2026-05-06 09:55 32.24329 26.29194 39156 ft 537 kts 143°
2026-05-06 09:56 32.18676 26.34957 39156 ft 537 kts 143°
2026-05-06 09:56 32.13020 26.40715 39156 ft 537 kts 143°
2026-05-06 09:57 32.07402 26.46424 39156 ft 537 kts 143°
2026-05-06 09:57 32.01741 26.52168 39157 ft 537 kts 143°
2026-05-06 09:58 31.96084 26.57897 39157 ft 536 kts 143°
2026-05-06 09:58 31.90416 26.63627 39159 ft 537 kts 143°
2026-05-06 09:59 31.84744 26.69352 39162 ft 537 kts 143°
2026-05-06 09:59 31.79074 26.75065 39161 ft 537 kts 143°
2026-05-06 10:00 31.73399 26.80775 39154 ft 537 kts 143°
2026-05-06 10:00 31.67718 26.86480 39168 ft 537 kts 143°
2026-05-06 10:01 31.62042 26.92171 39168 ft 537 kts 143°
2026-05-06 10:01 31.56353 26.97865 39167 ft 537 kts 143°
2026-05-06 10:02 31.50664 27.03550 39168 ft 537 kts 143°
2026-05-06 10:02 31.45003 27.09198 39170 ft 537 kts 143°
2026-05-06 10:03 31.41042 27.13144 39172 ft 538 kts 144°
2026-05-06 10:03 31.35335 27.18822 39157 ft 538 kts 144°
2026-05-06 10:04 31.30217 27.25268 39160 ft 545 kts 129°
2026-05-06 10:04 31.25854 27.32537 39160 ft 547 kts 127°
2026-05-06 10:05 31.21631 27.39904 39159 ft 547 kts 126°
2026-05-06 10:05 31.17391 27.47286 39156 ft 547 kts 127°
2026-05-06 10:06 31.13125 27.54644 39153 ft 547 kts 127°
2026-05-06 10:06 31.08805 27.61961 39153 ft 547 kts 128°
2026-05-06 10:07 31.04439 27.69231 39136 ft 547 kts 128°
2026-05-06 10:07 31.00103 27.76453 39144 ft 547 kts 128°
2026-05-06 10:08 30.95750 27.83710 39141 ft 547 kts 128°
2026-05-06 10:08 30.91391 27.90974 39142 ft 547 kts 128°
2026-05-06 10:09 30.87028 27.98232 39135 ft 547 kts 128°
2026-05-06 10:09 30.82665 28.05476 39136 ft 547 kts 128°
2026-05-06 10:10 30.78295 28.12717 39138 ft 547 kts 128°
2026-05-06 10:10 30.73920 28.19953 39131 ft 547 kts 128°
2026-05-06 10:11 30.69539 28.27186 39129 ft 547 kts 128°
2026-05-06 10:11 30.65155 28.34411 39124 ft 547 kts 128°
2026-05-06 10:12 30.61507 28.40413 39123 ft 547 kts 128°
2026-05-06 10:12 30.56378 28.48837 39122 ft 547 kts 128°
2026-05-06 10:13 30.52727 28.54821 39122 ft 547 kts 128°
2026-05-06 10:13 30.48327 28.62023 39121 ft 547 kts 128°
2026-05-06 10:14 30.43929 28.69207 39121 ft 547 kts 129°
2026-05-06 10:14 30.39765 28.76598 39128 ft 550 kts 119°
2026-05-06 10:15 30.36482 28.84517 39128 ft 542 kts 116°
2026-05-06 10:15 30.33457 28.92487 39127 ft 540 kts 115°
2026-05-06 10:16 30.30460 29.00455 39127 ft 540 kts 116°
2026-05-06 10:16 30.27436 29.08407 39123 ft 540 kts 116°
2026-05-06 10:17 30.24396 29.16340 39120 ft 540 kts 116°
2026-05-06 10:17 30.21342 29.24283 39117 ft 540 kts 116°
2026-05-06 10:18 30.18288 29.32208 39119 ft 540 kts 116°
2026-05-06 10:18 30.15228 29.40136 39114 ft 540 kts 116°
2026-05-06 10:19 30.12161 29.48063 39111 ft 540 kts 116°
2026-05-06 10:19 30.09090 29.55983 39108 ft 540 kts 116°
2026-05-06 10:20 30.06024 29.63875 38820 ft 540 kts 116°
2026-05-06 10:20 30.04505 29.67778 38551 ft 539 kts 116°
2026-05-06 10:20 30.02981 29.71696 38272 ft 529 kts 116°
2026-05-06 10:21 30.01487 29.75531 37988 ft 520 kts 116°
2026-05-06 10:21 30.00017 29.79304 37708 ft 511 kts 116°
2026-05-06 10:21 29.98575 29.82999 37444 ft 502 kts 116°
2026-05-06 10:21 29.97147 29.86653 37173 ft 497 kts 117°
2026-05-06 10:22 29.95729 29.90272 36846 ft 495 kts 117°
2026-05-06 10:22 29.94307 29.93894 36183 ft 496 kts 116°
2026-05-06 10:22 29.92881 29.97523 35531 ft 497 kts 116°
2026-05-06 10:22 29.91462 30.01133 35015 ft 489 kts 116°
2026-05-06 10:23 29.90074 30.04668 34241 ft 481 kts 116°
2026-05-06 10:23 29.88704 30.08156 33377 ft 473 kts 116°
2026-05-06 10:23 29.87352 30.11591 32577 ft 470 kts 116°
2026-05-06 10:23 29.86010 30.14998 32159 ft 465 kts 117°
2026-05-06 10:24 29.84682 30.18362 31775 ft 460 kts 117°
2026-05-06 10:24 29.83362 30.21703 31344 ft 456 kts 117°
2026-05-06 10:24 29.82052 30.25014 30920 ft 452 kts 117°
2026-05-06 10:24 29.80755 30.28292 30507 ft 448 kts 117°
2026-05-06 10:25 29.79473 30.31532 29876 ft 440 kts 117°
2026-05-06 10:25 29.78223 30.34692 29283 ft 427 kts 117°
2026-05-06 10:25 29.77002 30.37776 28879 ft 420 kts 117°
2026-05-06 10:25 29.75800 30.40804 28680 ft 414 kts 117°
2026-05-06 10:26 29.74610 30.43797 28182 ft 409 kts 117°
2026-05-06 10:26 29.73430 30.46762 27796 ft 405 kts 117°
2026-05-06 10:26 29.72261 30.49697 27406 ft 402 kts 117°
2026-05-06 10:26 29.71099 30.52610 27007 ft 399 kts 117°
2026-05-06 10:27 29.69964 30.55457 26637 ft 395 kts 117°
2026-05-06 10:27 29.68819 30.58325 26247 ft 392 kts 117°
2026-05-06 10:27 29.67672 30.61200 25884 ft 389 kts 117°
2026-05-06 10:27 29.66561 30.63981 25532 ft 386 kts 117°
2026-05-06 10:28 29.65442 30.66778 25159 ft 383 kts 117°
2026-05-06 10:28 29.64332 30.69553 24791 ft 380 kts 116°
2026-05-06 10:28 29.63229 30.72306 24418 ft 378 kts 116°
2026-05-06 10:28 29.62134 30.75041 24060 ft 375 kts 116°
2026-05-06 10:29 29.61047 30.77751 23688 ft 372 kts 116°
2026-05-06 10:29 29.59967 30.80443 23274 ft 370 kts 116°
2026-05-06 10:29 29.58894 30.83115 22834 ft 367 kts 116°
2026-05-06 10:29 29.57835 30.85753 22564 ft 360 kts 116°
2026-05-06 10:30 29.56797 30.88337 22315 ft 353 kts 116°
2026-05-06 10:30 29.55772 30.90887 21938 ft 350 kts 116°
2026-05-06 10:30 29.54754 30.93415 21544 ft 347 kts 116°
2026-05-06 10:30 29.53743 30.95925 21156 ft 345 kts 116°
2026-05-06 10:31 29.52742 30.98410 20670 ft 341 kts 116°
2026-05-06 10:31 29.51748 31.00875 19990 ft 338 kts 116°
2026-05-06 10:31 29.50764 31.03313 19312 ft 336 kts 116°
2026-05-06 10:31 29.49784 31.05737 18649 ft 333 kts 116°
2026-05-06 10:32 29.48800 31.08168 17607 ft 340 kts 116°
2026-05-06 10:32 29.47788 31.10666 16455 ft 349 kts 116°
2026-05-06 10:32 29.46754 31.13216 15290 ft 357 kts 116°
2026-05-06 10:32 29.45699 31.15817 14181 ft 362 kts 116°
2026-05-06 10:33 29.44636 31.18435 13159 ft 360 kts 115°
2026-05-06 10:33 29.43597 31.20995 12213 ft 356 kts 115°
2026-05-06 10:33 29.42561 31.23544 11296 ft 351 kts 115°
2026-05-06 10:33 29.41636 31.26082 10619 ft 338 kts 105°
2026-05-06 10:34 29.41415 31.28686 10016 ft 322 kts 82°
2026-05-06 10:34 29.42147 31.31025 9201 ft 309 kts 53°
2026-05-06 10:34 29.43708 31.32614 8403 ft 296 kts 23°
2026-05-06 10:34 29.45658 31.33053 7972 ft 283 kts 355°
2026-05-06 10:35 29.47514 31.32492 7733 ft 271 kts 336°
2026-05-06 10:35 29.49165 31.31541 7565 ft 260 kts 330°
2026-05-06 10:35 29.50751 31.30640 7388 ft 250 kts 339°
2026-05-06 10:35 29.52410 31.30194 7241 ft 241 kts 351°
2026-05-06 10:36 29.54044 31.30004 7113 ft 231 kts 354°
2026-05-06 10:36 29.55619 31.29889 6978 ft 222 kts 355°
2026-05-06 10:36 29.57128 31.29806 6855 ft 212 kts 356°
2026-05-06 10:36 29.58583 31.29740 6567 ft 207 kts 356°
2026-05-06 10:37 29.60001 31.29682 6356 ft 201 kts 356°
2026-05-06 10:37 29.61381 31.29631 6133 ft 197 kts 357°
2026-05-06 10:37 29.62738 31.29584 5902 ft 195 kts 357°
2026-05-06 10:37 29.64096 31.29536 5642 ft 195 kts 358°
2026-05-06 10:38 29.65454 31.29488 5367 ft 195 kts 359°
2026-05-06 10:38 29.66794 31.29442 5157 ft 192 kts 359°
2026-05-06 10:38 29.68126 31.29399 4904 ft 190 kts 359°
2026-05-06 10:38 29.69445 31.29353 4704 ft 190 kts 360°
2026-05-06 10:39 29.70783 31.29307 4552 ft 201 kts 359°
2026-05-06 10:39 29.72239 31.29259 4503 ft 214 kts 359°
2026-05-06 10:39 29.73703 31.29182 4346 ft 213 kts 354°
2026-05-06 10:39 29.75182 31.28856 4043 ft 215 kts 348°
2026-05-06 10:40 29.76631 31.28445 3983 ft 214 kts 347°
2026-05-06 10:40 29.78073 31.28025 3982 ft 214 kts 347°
2026-05-06 10:40 29.79522 31.27602 3975 ft 214 kts 347°
2026-05-06 10:40 29.80944 31.27193 3973 ft 216 kts 347°
2026-05-06 10:41 29.82416 31.26768 3948 ft 214 kts 346°
2026-05-06 10:41 29.83818 31.26356 3929 ft 204 kts 347°
2026-05-06 10:41 29.85143 31.25971 3929 ft 191 kts 348°
2026-05-06 10:41 29.86423 31.25604 3925 ft 190 kts 347°
2026-05-06 10:42 29.87700 31.25235 3919 ft 191 kts 348°
2026-05-06 10:42 29.89000 31.24878 3905 ft 190 kts 348°
2026-05-06 10:42 29.90271 31.24516 3895 ft 191 kts 346°
2026-05-06 10:42 29.91488 31.24159 3895 ft 190 kts 346°
2026-05-06 10:43 29.92760 31.23786 3887 ft 187 kts 347°
2026-05-06 10:43 29.93988 31.23492 3802 ft 173 kts 354°
2026-05-06 10:43 29.95156 31.23573 3727 ft 168 kts 13°
2026-05-06 10:44 29.97069 31.25073 3561 ft 169 kts 45°
2026-05-06 10:44 29.97860 31.26073 3514 ft 169 kts 47°
2026-05-06 10:44 29.98645 31.27089 3418 ft 169 kts 47°
2026-05-06 10:44 29.99401 31.28102 3338 ft 170 kts 48°
2026-05-06 10:45 30.00167 31.29134 3264 ft 170 kts 48°
2026-05-06 10:45 30.00942 31.30164 3119 ft 168 kts 47°
2026-05-06 10:45 30.01711 31.31182 2808 ft 164 kts 47°
2026-05-06 10:45 30.02429 31.32145 2592 ft 153 kts 48°
2026-05-06 10:46 30.03095 31.33041 2436 ft 144 kts 47°
2026-05-06 10:46 30.03743 31.33908 2238 ft 140 kts 47°
2026-05-06 10:46 30.04370 31.34751 2063 ft 135 kts 46°
2026-05-06 10:46 30.04959 31.35571 1818 ft 130 kts 45°
2026-05-06 10:47 30.05541 31.36340 1696 ft 128 kts 45°
2026-05-06 10:47 30.06141 31.37149 1533 ft 133 kts 47°
2026-05-06 10:47 30.06742 31.37951 1440 ft 134 kts 47°
2026-05-06 10:47 30.07358 31.38770 1223 ft 134 kts 47°
2026-05-06 10:48 30.07965 31.39577 969 ft 132 kts 47°
2026-05-06 10:48 30.08538 31.40357 745 ft 127 kts 45°
2026-05-06 10:48 30.09126 31.41107 600 ft 129 kts 47°
2026-05-06 10:48 30.09714 31.41893 420 ft 130 kts 48°
2026-05-06 10:49 30.10300 31.42674 382 ft 116 kts 50°
2026-05-06 10:49 30.10734 31.43253 380 ft 78 kts 49°
2026-05-06 10:49 30.11057 31.43547 381 ft 40 kts 26°
2026-05-06 10:49 30.11230 31.43565 380 ft 22 kts 313°
2026-05-06 10:50 30.11247 31.43430 381 ft 14 kts 301°
2026-05-06 10:50 30.11354 31.43310 381 ft 33 kts 319°
2026-05-06 10:50 30.11570 31.43099 381 ft 43 kts 320°
2026-05-06 10:50 30.11797 31.42875 380 ft 43 kts 319°
2026-05-06 10:51 30.12024 31.42648 379 ft 43 kts 320°
2026-05-06 10:51 30.12194 31.42429 381 ft 30 kts 271°
2026-05-06 10:51 30.12079 31.42232 381 ft 31 kts 229°
2026-05-06 10:51 30.11934 31.42037 381 ft 33 kts 230°
2026-05-06 10:52 30.11774 31.41819 381 ft 41 kts 230°
2026-05-06 10:52 30.11575 31.41561 381 ft 44 kts 229°
2026-05-06 10:52 30.11373 31.41297 381 ft 44 kts 229°
2026-05-06 10:52 30.11168 31.41025 381 ft 45 kts 229°
2026-05-06 10:53 30.11072 31.40822 381 ft 19 kts 287°
2026-05-06 10:53 30.11020 31.40672 381 ft 27 kts 229°
2026-05-06 10:53 30.10926 31.40464 380 ft 31 kts 282°
2026-05-06 10:53 30.10965 31.40312 380 ft 2 kts 285°
2026-05-06 10:54 30.10980 31.40256 380 ft 15 kts 294°
2026-05-06 10:54 30.11039 31.40226 380 ft 8 kts
2026-05-06 10:54 30.11065 31.40234 380 ft 1 kts 15°
2026-05-06 10:54 30.11083 31.40240 380 ft 0 kts 17°